Weather History for PACV - November, 2013

Change the Weather History Date:

Monday, November 4, 2013

  Actual Average Record
Temperature  
Mean Temperature 42 °F -  
Max Temperature 48 °F 41 °F 51 °F (1957)
Min Temperature 37 °F 27 °F -4 °F (1985)
Degree Days  
Heating Degree Days 22    
Moisture  
Dew Point 31 °F    
Average Humidity 62    
Maximum Humidity 86    
Minimum Humidity 50    
Precipitation  
Precipitation 0.01 in - - ()
Sea Level Pressure  
Sea Level Pressure 29.34 in    
Wind  
Wind Speed 5 mph (ENE)    
Max Wind Speed 14 mph    
Max Gust Speed 29 mph    
Visibility 10 miles    
Events Rain    
Averages and records for this station are not official NWS values.
T = Trace of Precipitation, MM = Missing Value Source: NWS Daily Summary

Daily Weather History Graph

Daily Weather History Graph

Search for Another Location

Airport or City:

Trip Planner

Search our weather history database for the weather conditions in past years. The results will help you decide how hot, cold, wet, or windy it might be!

Date:

Astronomy

Nov. 04, 2013 Rise Set
Actual Time 8:15 AM AKST 4:34 PM AKST
Civil Twilight 7:28 AM AKST 5:21 PM AKST
Nautical Twilight 6:37 AM AKST 6:12 PM AKST
Astronomical Twilight 5:48 AM AKST 7:00 PM AKST
Moon 9:57 AM AKST (11/4) 5:24 PM AKST (11/4)
Length of Visible Light 9h 52m
Length of Day
8h 19m
New Moon, 2% of the Moon is Illuminated
Nov 4
New Moon
Nov 9
First Quarter
Nov 17
Full
Nov 25
Last Quarter
Dec 2
New

Hourly Weather History & Observations

Time (AKST) Temp. Windchill Dew Point Humidity Pressure Visibility Wind Dir Wind Speed Gust Speed Precip Events Conditions
12:53 AM 45.0 °F 40.6 °F 32.0 °F 60% 29.64 in 10.0 mi ESE 8.1 mph - 0.00 in   Overcast
1:53 AM 46.0 °F 42.5 °F 30.0 °F 54% 29.60 in 10.0 mi East 6.9 mph - N/A   Overcast
2:53 AM 45.0 °F - 30.9 °F 58% 29.57 in 10.0 mi Calm Calm - N/A   Overcast
3:53 AM 43.0 °F - 28.9 °F 58% 29.53 in 10.0 mi Calm Calm - N/A   Overcast
4:53 AM 43.0 °F 41.3 °F 28.9 °F 58% 29.49 in 10.0 mi Variable 3.5 mph - N/A   Overcast
5:53 AM 39.0 °F - 32.0 °F 76% 29.46 in 10.0 mi Calm Calm - N/A   Partly Cloudy
6:53 AM 39.9 °F 37.8 °F 30.9 °F 70% 29.42 in 10.0 mi North 3.5 mph - N/A   Overcast
7:53 AM 37.9 °F - 32.0 °F 79% 29.37 in 10.0 mi Calm Calm - N/A   Overcast
8:53 AM 37.9 °F - 34.0 °F 86% 29.33 in 10.0 mi Calm Calm - N/A   Overcast
9:53 AM 39.9 °F - 32.0 °F 73% 29.32 in 10.0 mi Calm Calm - N/A   Overcast
10:53 AM 45.0 °F - 28.0 °F 52% 29.31 in 10.0 mi Calm Calm - N/A   Overcast
11:53 AM 45.0 °F - 30.9 °F 58% 29.30 in 10.0 mi Calm Calm - N/A   Overcast
12:53 PM 46.0 °F 41.9 °F 28.9 °F 51% 29.27 in 10.0 mi ENE 8.1 mph 18.4 mph 0.00 in Rain Light Rain
1:53 PM 46.0 °F 44.8 °F 32.0 °F 58% 29.25 in 10.0 mi North 3.5 mph - 0.00 in   Overcast
2:53 PM 46.9 °F - 32.0 °F 56% 29.24 in 10.0 mi Variable 5.8 mph - 0.00 in   Overcast
3:53 PM 45.0 °F 43.5 °F 28.0 °F 52% 29.23 in 10.0 mi NE 3.5 mph - N/A   Overcast
4:53 PM 44.1 °F 42.5 °F 30.9 °F 60% 29.22 in 10.0 mi ESE 3.5 mph - 0.00 in   Overcast
5:53 PM 43.0 °F - 30.0 °F 60% 29.22 in 10.0 mi Calm Calm - N/A   Overcast
6:53 PM 46.9 °F - 28.9 °F 50% 29.21 in 10.0 mi ENE 10.4 mph 16.1 mph N/A   Mostly Cloudy
7:53 PM 48.0 °F - 32.0 °F 54% 29.21 in 10.0 mi East 13.8 mph 19.6 mph 0.00 in Rain Light Rain
8:53 PM 43.0 °F 36.8 °F 34.0 °F 71% 29.23 in 10.0 mi East 11.5 mph 19.6 mph 0.01 in Rain Light Rain
9:53 PM 44.1 °F 42.5 °F 34.0 °F 68% 29.24 in 10.0 mi Variable 3.5 mph - 0.00 in   Overcast
10:53 PM 45.0 °F 38.9 °F 32.0 °F 60% 29.25 in 10.0 mi ENE 12.7 mph 28.8 mph 0.00 in Rain Light Rain
11:53 PM 44.1 °F 37.7 °F 33.1 °F 65% 29.28 in 10.0 mi ENE 12.7 mph 19.6 mph 0.00 in   Overcast